Powrót do katalogu

FENGYUN 1C DEB

AktywnySSO
NORAD 32143·DEBRIS·🇨🇳 China

Wystrzelony May 10, 1999 z Taiyuan Satellite Launch Center

Loading…

Następne Przeloty (najbliższe 24 godziny)

TLE

ŚwieżeSource: Space-Track

Epoka: Sep 14, 2026, 04:00 UTC

1 32143U 99025CSM 26257.16735713  .00000242  00000-0  13128-3 0  9999
2 32143  98.6280 231.0274 0104001  36.0818 324.7319 14.18175000998371

Śledź FENGYUN 1C DEB w czasie rzeczywistym z AllMySat

Download on the App Store